Location: Newark
(59.4564°N, 26.6917°E)
Time: 13:45:02
(UTC+00:00)

SR - Pass Details

Date: 27 November 2019
Orbit: 573 x 882 km, 66.7° (Epoch: 07 December)

Event Time Altitude Azimuth Distance (km) Brightness Sun altitude
Rises 17:28:39 0° 305° (NW) 3,462 ? -29.2°
Reaches altitude 10° 17:31:09 10° 308° (NW) 2,540 ? -29.5°
Enters shadow 17:36:12 58° 346° (NNW) 1,024 ? -30.2°
Maximum altitude 17:37:05 67° 31° (NNE) 960 - -30.3°
Drops below altitude 10° 17:42:58 10° 114° (ESE) 2,516 - -31.0°
Sets 17:45:26 0° 117° (ESE) 3,427 - -31.3°
